TOURFACTS.DK  
Stats and Facts from Tour de France.

Tour de France 2017 starts in 2 days
  Riders   Stages   Teams   Summits   Yearly  


 
Search by year

 After:  2016 - Stage 21:
  14626 starters.
  5126 different riders.
  634 teams.
  2211 stages.
  454 restdays.
  436049.60 km.
  5622 abandonnees.


Top 3
Christopher Froome89:04:48
Romain Bardet89:08:53
Nairo Quintana89:09:09
Rafal Majka209 pt.
Thomas De Gendt130 pt.
Jarlinson Pantano ..121 pt.
Peter Sagan470 pt.
Marcel Kittel228 pt.
Michael Matthews199 pt.
Adam Yates89:09:30
Louis Meintjes89:11:46
Emanuel Buchmann89:52:28
Facts from Tour de France 2015
  |   Stages.  |   Stage winners.  |   Days in yellow  |   Average speed.  |   Route.  |   Teams.  |   All riders.  |   Rookies.  |   Withdrawls.  |  

  |   GC.  |   Polka  |   Green  |   White  |   Summits. (In tour)  |   Summits. (Points)  |   Miscellaneous.  |  

Stage 1 on 04 - 07 - 2015
         Owning:        
Pick a stage:  1 2 3 4 5 6 7 8 10 11 12 13 14 15 16 17 18 19 20 21
  UtrechtUtrecht | Dist: 13.80 km.

Average speed for all riders in stage:  50,990 km./hr.
    Place:Name:Team:Time:Km/h:
AUSRohan DennisUSABMC Racing Team00:14:56  +  00:00:00=55,446 
DEUTony MartinBELEtixx - Quick Step00:15:01  +  00:00:05=55,139 
CHEFabian CancellaraUSATrek Factory Racing00:15:02  +  00:00:06=55,078 
4 NLDTom DumoulinDEUTeam Giant Alpecin00:15:04  +  00:00:08=54,956 
5 NLDJos Van EmdenNLDTeam Lotto NL - Jumbo00:15:11  +  00:00:15=54,533 
6 ESPJonathan CastroviejoESPMovistar Team00:15:19  +  00:00:23=54,059 
7 AUTMatthias BrändleCHEIAM Cycling00:15:19  +  00:00:23=54,059 
8 ITAAdriano MaloriESPMovistar Team00:15:25  +  00:00:29=53,708 
9 NLDWilco KeldermanNLDTeam Lotto NL - Jumbo00:15:26  +  00:00:30=53,650 
10 ENGStephen CummingsZAFMTN - Qhubeka P/B Samsung00:15:28  +  00:00:32=53,534 
11 NLDRobert GesinkNLDTeam Lotto NL - Jumbo00:15:29  +  00:00:33=53,477 
12 WALGeraint ThomasGBRSky Procycling00:15:29  +  00:00:33=53,477 
13 ENGAlex DowsettESPMovistar Team00:15:32  +  00:00:36=53,305 
14 NLDBauke MollemaUSATrek Factory Racing00:15:33  +  00:00:37=53,248 
15 LUXBob JungelsUSATrek Factory Racing00:15:34  +  00:00:38=53,191 
16 NLDDylan Van BaarleUSATeam Cannondale - Garmin00:15:34  +  00:00:38=53,191 
17 COLRigoberto UranBELEtixx - Quick Step00:15:36  +  00:00:40=53,077 
18 FRAThibaut PinotFRAFDJ00:15:37  +  00:00:41=53,020 
19 SVKPeter SaganRUSTinkoff Saxo00:15:37  +  00:00:41=53,020 
20 USATejay Van GarderenUSABMC Racing Team00:15:38  +  00:00:42=52,964 
21 CZELeopold KönigGBRSky Procycling00:15:39  +  00:00:43=52,907 
22 ITAVincenzo NibaliKAZAstana Pro Team00:15:39  +  00:00:43=52,907 
23 NLDLars BoomKAZAstana Pro Team00:15:40  +  00:00:44=52,851 
24 ITADaniel OssUSABMC Racing Team00:15:40  +  00:00:44=52,851 
25 CANSvein TuftAUSOrica - GreenEDGE00:15:41  +  00:00:45=52,795 
26 DEUJohn DegenkolbDEUTeam Giant Alpecin00:15:41  +  00:00:45=52,795 
27 NLDLieuwe WestraKAZAstana Pro Team00:15:41  +  00:00:45=52,795 
28 CZEZdenek StybarBELEtixx - Quick Step00:15:41  +  00:00:45=52,795 
29 FRASylvain ChavanelCHEIAM Cycling00:15:41  +  00:00:45=52,795 
30 USRRein TaaramäeKAZAstana Pro Team00:15:41  +  00:00:45=52,795 
31 NLDSteven KruijswijkNLDTeam Lotto NL - Jumbo00:15:41  +  00:00:45=52,795 
32 AUSLuke DurbridgeAUSOrica - GreenEDGE00:15:42  +  00:00:46=52,739 
33 ENGSimon YatesAUSOrica - GreenEDGE00:15:42  +  00:00:46=52,739 
34 AUSMichael RogersRUSTinkoff Saxo00:15:43  +  00:00:47=52,683 
35 FRAJérémy RoyFRAFDJ00:15:43  +  00:00:47=52,683 
36 BELSep VanmarckeNLDTeam Lotto NL - Jumbo00:15:45  +  00:00:49=52,571 
37 CHEMartin ElmigerCHEIAM Cycling00:15:46  +  00:00:50=52,516 
38 BELGreg Van AvermaetUSABMC Racing Team00:15:46  +  00:00:50=52,516 
39 KENChristopher FroomeGBRSky Procycling00:15:46  +  00:00:50=52,516 
40 FRAJérôme CoppelCHEIAM Cycling00:15:47  +  00:00:51=52,460 
41 ESPGorka Izaguirre InsaustiESPMovistar Team00:15:49  +  00:00:53=52,350 
42 DEUPaul MartensNLDTeam Lotto NL - Jumbo00:15:51  +  00:00:55=52,240 
43 ESPAlejandro ValverdeESPMovistar Team00:15:52  +  00:00:56=52,185 
44 ZAFDaryl ImpeyAUSOrica - GreenEDGE00:15:53  +  00:00:57=52,130 
45 UKRAndriy GrivkoKAZAstana Pro Team00:15:53  +  00:00:57=52,130 
46 ESPAlberto ContadorRUSTinkoff Saxo00:15:54  +  00:00:58=52,075 
47 AUSMichael MatthewsAUSOrica - GreenEDGE00:15:54  +  00:00:58=52,075 
48 FRATony GallopinBELLotto Soudal00:15:54  +  00:00:58=52,075 
49 ESPMarkel IrizarUSATrek Factory Racing00:15:54  +  00:00:58=52,075 
50 FRAJean-Christophe PeraudFRAAg2r La Mondiale00:15:55  +  00:00:59=52,021 
51 AUTGeorg PreidlerDEUTeam Giant Alpecin00:15:55  +  00:00:59=52,021 
52 NOREdvald Boasson HagenZAFMTN - Qhubeka P/B Samsung00:15:55  +  00:00:59=52,021 
53 CHESteve MorabitoFRAFDJ00:15:56  +  00:01:00=51,967 
54 CHEMichael AlbasiniAUSOrica - GreenEDGE00:15:56  +  00:01:00=51,967 
55 FRADamien GaudinFRAAg2r La Mondiale00:15:56  +  00:01:00=51,967 
56 ESPHaimar ZubeldiaUSATrek Factory Racing00:15:57  +  00:01:01=51,912 
57 COLNairo QuintanaESPMovistar Team00:15:57  +  00:01:01=51,912 
58 USRTanel KangertKAZAstana Pro Team00:15:58  +  00:01:02=51,858 
59 ESPSamuel SanchezUSABMC Racing Team00:16:00  +  00:01:04=51,750 
60 ITAManuel QuinziatoUSABMC Racing Team00:16:00  +  00:01:04=51,750 
61 DEUSimon GeschkeDEUTeam Giant Alpecin00:16:01  +  00:01:05=51,696 
62 NLDWout PoelsGBRSky Procycling00:16:01  +  00:01:05=51,696 
63 CZERoman KreuzigerRUSTinkoff Saxo00:16:02  +  00:01:06=51,642 
64 POLMichal KwiatkowskiBELEtixx - Quick Step00:16:02  +  00:01:06=51,642 
65 AUSRichie PorteGBRSky Procycling00:16:02  +  00:01:06=51,642 
66 NLDPieter WeeningAUSOrica - GreenEDGE00:16:03  +  00:01:07=51,589 
67 NLDTom LeezerNLDTeam Lotto NL - Jumbo00:16:03  +  00:01:07=51,589 
68 IMNPeter KennaughGBRSky Procycling00:16:04  +  00:01:08=51,535 
69 PRTTiago PintoRUSTeam Katusha00:16:04  +  00:01:08=51,535 
70 PRTJosé João PimentaDEUBora-Argon 1800:16:04  +  00:01:08=51,535 
71 NORAlexander KristoffRUSTeam Katusha00:16:04  +  00:01:08=51,535 
72 CHEReto HollensteinCHEIAM Cycling00:16:05  +  00:01:09=51,482 
73 DEUMarcel SiebergBELLotto Soudal00:16:06  +  00:01:10=51,429 
74 ENGIan StannardGBRSky Procycling00:16:07  +  00:01:11=51,375 
75 NZLJack BauerUSATeam Cannondale - Garmin00:16:07  +  00:01:11=51,375 
76 DEUAndré GreipelBELLotto Soudal00:16:07  +  00:01:11=51,375 
77 ESPImanol ErvitiESPMovistar Team00:16:07  +  00:01:11=51,375 
78 DEUEmanuel BuchmannDEUBora-Argon 1800:16:08  +  00:01:12=51,322 
79 CHEMathias FrankCHEIAM Cycling00:16:08  +  00:01:12=51,322 
80 CHEMarcel WyssCHEIAM Cycling00:16:08  +  00:01:12=51,322 
81 FRAArnaud DémareFRAFDJ00:16:08  +  00:01:12=51,322 
82 COLWinner AnaconaESPMovistar Team00:16:09  +  00:01:13=51,269 
83 PRTRui CostaITALampre-Merida00:16:09  +  00:01:13=51,269 
84 BELJulien VermoteBELEtixx - Quick Step00:16:09  +  00:01:13=51,269 
85 FRARomain SicardFRATeam Europcar00:16:09  +  00:01:13=51,269 
86 AUSZakkari DempsterDEUBora-Argon 1800:16:10  +  00:01:14=51,216 
87 CANRyder HesjedalUSATeam Cannondale - Garmin00:16:11  +  00:01:15=51,164 
88 FRAWilliam BonnetFRAFDJ00:16:11  +  00:01:15=51,164 
89 SVNKristjan KorenUSATeam Cannondale - Garmin00:16:11  +  00:01:15=51,164 
90 USAAndrew TalanskyUSATeam Cannondale - Garmin00:16:11  +  00:01:15=51,164 
91 NLDLaurens ten DamNLDTeam Lotto NL - Jumbo00:16:11  +  00:01:15=51,164 
92 POLBartosz HuzarskiDEUBora-Argon 1800:16:12  +  00:01:16=51,111 
93 ITADaniele BennatiRUSTinkoff Saxo00:16:12  +  00:01:16=51,111 
94 PRTNelson OliveiraITALampre-Merida00:16:12  +  00:01:16=51,111 
95 ENGDaniel MartinUSATeam Cannondale - Garmin00:16:13  +  00:01:17=51,059 
96 NLDStef ClementCHEIAM Cycling00:16:13  +  00:01:17=51,059 
97 ENGAdam YatesAUSOrica - GreenEDGE00:16:14  +  00:01:18=51,006 
98 NLDSebastian LangeveldUSATeam Cannondale - Garmin00:16:15  +  00:01:19=50,954 
99 DNKLars BakBELLotto Soudal00:16:15  +  00:01:19=50,954 
100 BELStijn DevolderUSATrek Factory Racing00:16:15  +  00:01:19=50,954 
101 FRANicolas RocheGBRSky Procycling00:16:16  +  00:01:20=50,902 
102 BELTim WellensBELLotto Soudal00:16:17  +  00:01:21=50,850 
103 ZAFLouis MeintjesZAFMTN - Qhubeka P/B Samsung00:16:17  +  00:01:21=50,850 
104 BELSerge PauwelsZAFMTN - Qhubeka P/B Samsung00:16:17  +  00:01:21=50,850 
105 USATyler FarrarZAFMTN - Qhubeka P/B Samsung00:16:18  +  00:01:22=50,798 
106 NZLGregory HendersonBELLotto Soudal00:16:18  +  00:01:22=50,798 
107 FRAFlorian VachonFRABretagne - Séché Environnement00:16:18  +  00:01:22=50,798 
108 AUSSimon GerransAUSOrica - GreenEDGE00:16:18  +  00:01:22=50,798 
109 ESPAlberto LosadaRUSTeam Katusha00:16:19  +  00:01:23=50,746 
110 NLDBram TankinkNLDTeam Lotto NL - Jumbo00:16:19  +  00:01:23=50,746 
111 POLRafal MajkaRUSTinkoff Saxo00:16:19  +  00:01:23=50,746 
112 FRAThomas VoecklerFRATeam Europcar00:16:20  +  00:01:24=50,694 
113 FRAMatthieu LadagnousFRAFDJ00:16:20  +  00:01:24=50,694 
114 FRANicolas EdetFRACofidis – Solutions Crédits00:16:20  +  00:01:24=50,694 
115 FRAFlorian SénéchalFRACofidis – Solutions Crédits00:16:20  +  00:01:24=50,694 
116 CHEDanilo WyssUSABMC Racing Team00:16:20  +  00:01:24=50,694 
117 POLMichal GolasBELEtixx - Quick Step00:16:20  +  00:01:24=50,694 
118 DEUAndreas SchillingerDEUBora-Argon 1800:16:21  +  00:01:25=50,642 
119 DEUPaul VossDEUBora-Argon 1800:16:21  +  00:01:25=50,642 
120 FRAChristophe LaporteFRACofidis – Solutions Crédits00:16:21  +  00:01:25=50,642 
121 NLDRamon SinkeldamDEUTeam Giant Alpecin00:16:21  +  00:01:25=50,642 
122 ITAMatteo TrentinBELEtixx - Quick Step00:16:22  +  00:01:26=50,591 
123 IMNMark CavendishBELEtixx - Quick Step00:16:22  +  00:01:26=50,591 
124 BELThomas De GendtBELLotto Soudal00:16:22  +  00:01:26=50,591 
125 ESPJoaquim RodriguezRUSTeam Katusha00:16:22  +  00:01:26=50,591 
126 CHEJakob FuglsangKAZAstana Pro Team00:16:22  +  00:01:26=50,591 
127 FRAWarren BarguilDEUTeam Giant Alpecin00:16:23  +  00:01:27=50,539 
128 KAZDmitriy GruzdevKAZAstana Pro Team00:16:23  +  00:01:27=50,539 
129 ZAFJacques Janse Van RensburgZAFMTN - Qhubeka P/B Samsung00:16:23  +  00:01:27=50,539 
130 FRAAlexandre GeniezFRAFDJ00:16:23  +  00:01:27=50,539 
131 ITAMichele ScarponiKAZAstana Pro Team00:16:24  +  00:01:28=50,488 
132 FRAChristophe RiblonFRAAg2r La Mondiale00:16:26  +  00:01:30=50,385 
133 ESPRafael Valls FerriITALampre-Merida00:16:26  +  00:01:30=50,385 
134 COLJarlinson Pantano GomezCHEIAM Cycling00:16:27  +  00:01:31=50,334 
135 FRAPierrick FédrigoFRABretagne - Séché Environnement00:16:27  +  00:01:31=50,334 
136 ESPDaniel NavarroFRACofidis – Solutions Crédits00:16:27  +  00:01:31=50,334 
137 CHEGregory RastUSATrek Factory Racing00:16:27  +  00:01:31=50,334 
138 DEUDominik NerzDEUBora-Argon 1800:16:27  +  00:01:31=50,334 
139 BELJan BakelantsFRAAg2r La Mondiale00:16:28  +  00:01:32=50,283 
140 FRABenoit VaugrenardFRAFDJ00:16:28  +  00:01:32=50,283 
141 USRRamunas NavardauskasUSATeam Cannondale - Garmin00:16:29  +  00:01:33=50,233 
142 BELJens DebusschereBELLotto Soudal00:16:29  +  00:01:33=50,233 
143 FRAJulien SimonFRACofidis – Solutions Crédits00:16:29  +  00:01:33=50,233 
144 FRAAnthony DelaplaceFRABretagne - Séché Environnement00:16:29  +  00:01:33=50,233 
145 FRARomain BardetFRAAg2r La Mondiale00:16:30  +  00:01:34=50,182 
146 ERIDaniel TeklehaimanotZAFMTN - Qhubeka P/B Samsung00:16:30  +  00:01:34=50,182 
147 ITADamiano CarusoUSABMC Racing Team00:16:31  +  00:01:35=50,131 
148 CZEJan BártaDEUBora-Argon 1800:16:31  +  00:01:35=50,131 
149 FRABryan NauleauFRATeam Europcar00:16:31  +  00:01:35=50,131 
150 AUTMarco HallerRUSTeam Katusha00:16:31  +  00:01:35=50,131 
151 FRACyril GautierFRATeam Europcar00:16:32  +  00:01:36=50,081 
152 ZAFReinardt Janse Van RensburgZAFMTN - Qhubeka P/B Samsung00:16:33  +  00:01:37=50,030 
153 NLDKoen De KortDEUTeam Giant Alpecin00:16:33  +  00:01:37=50,030 
154 AUSNathan HaasUSATeam Cannondale - Garmin00:16:33  +  00:01:37=50,030 
155 NLDAlbert TimmerDEUTeam Giant Alpecin00:16:35  +  00:01:39=49,930 
156 ITAMatteo TosattoRUSTinkoff Saxo00:16:36  +  00:01:40=49,880 
157 ARGEduardo SepulvedaFRABretagne - Séché Environnement00:16:36  +  00:01:40=49,880 
158 ESPRubén PlazaITALampre-Merida00:16:36  +  00:01:40=49,880 
159 RUSDimitry KozonchukRUSTeam Katusha00:16:37  +  00:01:41=49,829 
160 FRAAlexis VuillermozFRAAg2r La Mondiale00:16:38  +  00:01:42=49,780 
161 ITAFilippo PozzatoITALampre-Merida00:16:38  +  00:01:42=49,780 
162 FRAGeoffrey SoupeFRACofidis – Solutions Crédits00:16:39  +  00:01:43=49,730 
163 ITADavide CimolaiITALampre-Merida00:16:39  +  00:01:43=49,730 
164 ITAIvan BassoRUSTinkoff Saxo00:16:41  +  00:01:45=49,630 
165 AUSMark RenshawBELEtixx - Quick Step00:16:42  +  00:01:46=49,581 
166 FRAPierre RollandFRATeam Europcar00:16:42  +  00:01:46=49,581 
167 AUSAdam HansenBELLotto Soudal00:16:43  +  00:01:47=49,531 
168 LUXLaurent DidierUSATrek Factory Racing00:16:43  +  00:01:47=49,531 
169 BELJohan VansummerenFRAAg2r La Mondiale00:16:44  +  00:01:48=49,482 
170 BELKenneth VanbilsenFRACofidis – Solutions Crédits00:16:44  +  00:01:48=49,482 
171 BELSam BennettDEUBora-Argon 1800:16:44  +  00:01:48=49,482 
172 DNKMichael ValgrenRUSTinkoff Saxo00:16:45  +  00:01:49=49,433 
173 COLJulián ArredondoUSATrek Factory Racing00:16:46  +  00:01:50=49,384 
174 ESPJosé Herrada LópezESPMovistar Team00:16:46  +  00:01:50=49,384 
175 ERIMerhawi GhebremedhinZAFMTN - Qhubeka P/B Samsung00:16:47  +  00:01:51=49,335 
176 FRABryan CoquardFRATeam Europcar00:16:47  +  00:01:51=49,335 
177 CHEMichael SchärUSABMC Racing Team00:16:47  +  00:01:51=49,335 
178 ITAJacopo GuarnieriRUSTeam Katusha00:16:47  +  00:01:51=49,335 
179 FRAYohann GèneFRATeam Europcar00:16:49  +  00:01:53=49,237 
180 WALLuke RoweGBRSky Procycling00:16:50  +  00:01:54=49,188 
181 ITALuca PaoliniRUSTeam Katusha00:16:51  +  00:01:55=49,139 
182 HRVKristijan DurasekITALampre-Merida00:16:51  +  00:01:55=49,139 
183 FRAAngelo TulikFRATeam Europcar00:16:53  +  00:01:57=49,042 
184 ESPLuis Angel MateFRACofidis – Solutions Crédits00:16:54  +  00:01:58=48,994 
185 FRAFrédéric BrunFRABretagne - Séché Environnement00:16:57  +  00:02:01=48,850 
186 FRASébastien ChavanelFRAFDJ00:16:58  +  00:02:02=48,802 
187 COLJosé SerpaITALampre-Merida00:17:05  +  00:02:09=48,468 
188 NLDRoy CurversDEUTeam Giant Alpecin00:17:08  +  00:02:12=48,327 
189 ITAMatteo BonoITALampre-Merida00:17:09  +  00:02:13=48,280 
190 LUXBen GastauerFRAAg2r La Mondiale00:17:10  +  00:02:14=48,233 
191 FRANacer BouhanniFRACofidis – Solutions Crédits00:17:10  +  00:02:14=48,233 
192 FRAArnaud GérardFRABretagne - Séché Environnement00:17:14  +  00:02:18=48,046 
193 FRAPierre-Luc PérichonFRABretagne - Séché Environnement00:17:19  +  00:02:23=47,815 
194 FRAPerrig QuemeneurFRATeam Europcar00:17:20  +  00:02:24=47,769 
195 ITAGiampaolo CarusoRUSTeam Katusha00:17:20  +  00:02:24=47,769 
196 FRAArmindo FonsecaFRABretagne - Séché Environnement00:17:21  +  00:02:25=47,723 
197 FRABrice FeilluFRABretagne - Séché Environnement00:17:24  +  00:02:28=47,586 
198 FRAMickaël CherelFRAAg2r La Mondiale00:18:32  +  00:03:36=44,676 


Todays birthdays.

1888  René Etien
1891  Arturo Ferrario
1913  Léon Theerlynck
1921  Roger Piel
1929  Antonio Ferraz
1930  Rizzardo Brenioli
1934  Orphée Meneghini
1943  Pietro Guerra
1961  Marc Somers
1964  Ettore Badolato
1967  Miguel Angel Martinez
1968  Davide Bramati
1981  Vasil Kiryienka